{"data":{"norad_id":65144,"intl_designator":"2025-171N","name":"KUIPER-00106","alt_names":[],"object_type":"PAYLOAD","status":"ACTIVE","operator":null,"country":"US","launch_date":"2025-08-11","launch_site_code":"AFETR","launch_vehicle":null,"mission":null,"orbit_class":"UNKNOWN","rcs_meters":null,"size_class":null,"mass_kg":null,"dimensions":null,"purposes":[],"wikipedia_slug":null,"has_3d_model":false,"image_url":null,"decayed_at":null,"tle_current":{"epoch":"2026-09-21T13:17:54.506976Z","epoch_age_seconds":74124,"freshness":"FRESH","line1":"1 65144U 25171N   26264.55410309  .00002156  00000+0  31171-3 0  9992","line2":"2 65144  51.9029 358.3136 0000435  94.9317 265.1695 14.79937810 62092","mean_motion":14.7993781,"eccentricity":4.35e-5,"inclination_deg":51.9029,"raan_deg":358.3136,"arg_perigee_deg":94.9317,"mean_anomaly_deg":265.1695,"bstar":0.00031171,"rev_number":6209,"period_min":97.301385927832,"perigee_km":629.21561213917,"apogee_km":629.82527833691,"semimajor_km":7007.657445238,"source":"CELESTRAK","updated_at":"2026-09-22T09:00:30.154572Z"}}}